Location: Chacón
(10.5789°N, 66.9317°W)
Time: 20:32:46
(UTC+00:00)

Sakura Rocket - Pass Details

Date: 11 August 2024
Orbit: 475 x 1710 km, 28.7° (Epoch: 09 September)

Event Time Altitude Azimuth Distance (km) Brightness Sun altitude
Exits shadow 09:10:00 - 307° (NW) 3,662 6.7 -16.8°
Reaches altitude 10° 09:12:10 10° 312° (NW) 2,989 6.3 -16.2°
Maximum altitude 09:19:36 50° 27° (NNE) 1,697 5.5 -14.5°
Drops below altitude 10° 09:29:11 10° 99° (E) 3,832 8.1 -12.3°
Sets 09:32:49 0° 104° (ESE) 4,909 8.7 -11.4°
